CZ-6A DEB, 60694

Orbit data source: Space-Track

CZ-6A DEB, 60694 is space debris in LEO originally from a launch on Tue, 06 Aug 2024 UTC launched from the Taiyaun Space Center, China (TSC). Debris objects in space refer to the collection of defunct objects orbiting the Earth. Examples of debris include non-operational satellites, rocket bodies, and fragments generated from explosions, collisions, or faulty payload assembly.

Loading next visibility...
Identifier
60694, 2024-140CX
Orbit
LEO
Country
Flag of CNCN / PRC
Related business
Manufacturer
SAST
Mission
Spacecraft
Bus & Motor
Unknown
Mass
Unknown
Launch date (UTC)
2024-08-06 (2 years ago)
Launch vehicle
Unknown
Launch site
Taiyaun Space Center, China (TSC)
Object type
Payload
Rocket body
Debris
Shape & HBR
Unknown shape, 0.4 m
Radar Cross Section
Medium (>0.1 m² and <1 m²)

Expand to show TLE details & history
Last TLE update: 14 hours ago

TLE from 14 hours ago
0 CZ-6A DEB
1 60694U 24140CX  26171.27895362  .00000633  00000-0  29958-3 0  9993
2 60694  89.0114 275.5624 0059733 193.6233 166.3347 14.17534377 96349
Epoch: 2026-06-20T06:41Z
TLE epoch observation values (Epoch: 2026-06-20T06:41:41.592Z)
Latitude
-0.00003°
Longitude
-93.35676°
Altitude
878.635 km
Speed
7.391 km/s
True Right ascension
18h 22m 14s
True Declination
0° 00' 00"
Sunlit
Object was in full shadow at epoch
Visualization orbit readout
Latitude
Unknown
Longitude
Unknown
Altitude
Unknown
Speed
Unknown
Apparent Right ascension
Unknown
Apparent Declination
Unknown
Sunlit
N/A
Visualization observer readout
Local Sidereal Time
07:22:02
Azimuth
Unknown
Elevation
Unknown
Doppler factor
Unknown
Orbital elements
Apogee altitude
873.718 km
Perigee altitude
787.598 km
Semi-major axis
7,208.795 km
Eccentricity
0.00597
Inclination
89.0114°
RAAN
275.5624°
Arg. of periapsis
193.6233°
True anomaly
166.49525°
Mean anomaly
166.3347°
Eccentric anomaly
166.41509°
Mean motion
3.54609 °/min
Orbital period
101.52 mins
BSTAR
0.00029958
Loading maneuver chart data...
Computing Atmospheric mass density...
Loading historical data...
Loading historical data...
Loading historical data...
Loading historical data...
Loading historical data...
Loading historical data...
Loading historical data...

Documentation

Showing up to 5 results
|